Weather History for New Orleans Lakefront, LA

Change the Weather History Date:

Wednesday, January 2, 2013

  Actual Average Record
Temperature  
Mean Temperature 49 °F 54 °F  
Max Temperature 53 °F 62 °F 81 °F (1952)
Min Temperature 44 °F 45 °F 25 °F (1984)
Degree Days  
Heating Degree Days 16 12  
Month to date heating degree days 16 24  
Since 1 July heating degree days 424 505  
Cooling Degree Days 0 1  
Month to date cooling degree days 1 2  
Year to date cooling degree days 1 2  
Growing Degree Days 2 (Base 50)    
Moisture  
Dew Point 44 °F    
Average Humidity 87    
Maximum Humidity 93    
Minimum Humidity 80    
Precipitation  
Precipitation 0.05 in 0.16 in 1.27 in (1947)
Month to date precipitation 0.29 0.32  
Year to date precipitation 0.29 0.32  
Snow  
Snow 0.00 in - - ()
Month to date snowfall 0.0  
Since 1 July snowfall 0.0  
Snow Depth 0.00 in    
Sea Level Pressure  
Sea Level Pressure 30.15 in    
Wind  
Wind Speed 11 mph (North)    
Max Wind Speed 16 mph    
Max Gust Speed 23 mph    
Visibility 9 miles    
Events Rain    
T = Trace of Precipitation, MM = Missing Value Source: NWS Daily Summary

Daily Weather History Graph

Daily Weather History Graph

Search for Another Location

Airport:

Trip Planner

Search our weather history database for the weather conditions in past years. The results will help you decide how hot, cold, wet, or windy it might be!

Date:

Astronomy

Jan. 02, 2013 Rise Set
Actual Time 6:56 AM CST 5:12 PM CST
Civil Twilight 6:30 AM CST 5:38 PM CST
Nautical Twilight 6:00 AM CST 6:08 PM CST
Astronomical Twilight 5:31 AM CST 6:37 PM CST
Moon 10:19 PM CST (1/2) 10:01 AM CST (1/2)
Length of Visible Light 11h 08m
Length of Day
10h 15m
Waning Gibbous, 75% of the Moon is Illuminated
Jan 2
Waning Gibbous
Jan 4
Last Quarter
Jan 11
New
Jan 18
First Quarter
Jan 26
Full

Hourly Weather History & Observations

Time (CST) Temp. Dew Point Humidity Pressure Visibility Wind Dir Wind Speed Gust Speed Precip Events Conditions
12:08 AM 57.2 °F 50.0 °F 77% 30.08 in 10.0 mi NNW 19.6 mph - N/A   Overcast
12:46 AM 55.4 °F 48.2 °F 77% 30.09 in 10.0 mi North 13.8 mph - 0.00 in Rain Light Rain
12:53 AM 55.9 °F 48.9 °F 77% 30.07 in 10.0 mi North 13.8 mph - 0.00 in   Overcast
1:07 AM 55.4 °F 48.2 °F 77% 30.07 in 10.0 mi North 16.1 mph - N/A   Overcast
1:53 AM 55.0 °F 48.0 °F 77% 30.08 in 10.0 mi NNW 21.9 mph - N/A   Overcast
2:53 AM 54.0 °F 46.9 °F 77% 30.07 in 10.0 mi North 15.0 mph - N/A   Overcast
3:53 AM 54.0 °F 46.0 °F 75% 30.08 in 10.0 mi North 17.3 mph - N/A   Overcast
4:53 AM 53.1 °F 46.0 °F 77% 30.09 in 10.0 mi North 15.0 mph - N/A   Mostly Cloudy
5:53 AM 52.0 °F 46.0 °F 80% 30.10 in 10.0 mi North 17.3 mph - 0.01 in   Overcast
6:53 AM 52.0 °F 44.1 °F 74% 30.12 in 10.0 mi North 15.0 mph - N/A   Overcast
7:46 AM 51.8 °F 44.6 °F 76% 30.17 in 8.0 mi NNW 16.1 mph - N/A   Overcast
7:53 AM 51.1 °F 44.1 °F 77% 30.15 in 8.0 mi North 16.1 mph - N/A   Overcast
8:53 AM 50.0 °F 43.0 °F 77% 30.17 in 7.0 mi North 15.0 mph - N/A   Overcast
9:53 AM 51.1 °F 43.0 °F 74% 30.18 in 8.0 mi North 13.8 mph - N/A   Overcast
10:27 AM 51.8 °F 42.8 °F 71% 30.20 in 9.0 mi North 15.0 mph - N/A   Overcast
10:53 AM 51.1 °F 43.0 °F 74% 30.17 in 9.0 mi North 12.7 mph - N/A   Overcast
11:49 AM 51.8 °F 42.8 °F 71% 30.15 in 10.0 mi NNE 9.2 mph - N/A   Overcast
11:53 AM 51.1 °F 42.1 °F 71% 30.14 in 10.0 mi NNE 9.2 mph - N/A   Overcast
12:17 PM 51.8 °F 42.8 °F 71% 30.15 in 10.0 mi North 11.5 mph - N/A   Overcast
12:53 PM 52.0 °F 43.0 °F 71% 30.12 in 10.0 mi North 12.7 mph - N/A   Overcast
1:40 PM 53.6 °F 42.8 °F 67% 30.13 in 10.0 mi NNW 9.2 mph - N/A   Overcast
1:53 PM 53.1 °F 42.1 °F 66% 30.11 in 10.0 mi North 10.4 mph - N/A   Overcast
2:16 PM 53.6 °F 42.8 °F 67% 30.13 in 10.0 mi NNW 13.8 mph - N/A   Overcast
2:32 PM 53.6 °F 42.8 °F 67% 30.15 in 10.0 mi NNW 12.7 mph - N/A   Overcast
2:53 PM 53.1 °F 43.0 °F 69% 30.14 in 10.0 mi NNW 11.5 mph - N/A   Overcast
3:28 PM 51.8 °F 42.8 °F 71% 30.18 in 10.0 mi NNW 13.8 mph - N/A   Overcast
3:53 PM 52.0 °F 42.1 °F 69% 30.16 in 10.0 mi NNW 16.1 mph - N/A   Overcast
4:51 PM 51.8 °F 44.6 °F 76% 30.17 in 10.0 mi NNW 16.1 mph - 0.00 in   Overcast
4:53 PM 51.1 °F 44.1 °F 77% 30.15 in 9.0 mi NNW 16.1 mph - 0.00 in   Overcast
5:21 PM 51.8 °F 42.8 °F 71% 30.18 in 10.0 mi North 12.7 mph - N/A   Overcast
5:39 PM 51.8 °F 42.8 °F 71% 30.18 in 10.0 mi North 12.7 mph - N/A   Overcast
5:53 PM 51.1 °F 43.0 °F 74% 30.16 in 10.0 mi NNW 17.3 mph - N/A   Overcast
6:32 PM 50.0 °F 42.8 °F 76% 30.19 in 10.0 mi North 18.4 mph - N/A   Overcast
6:53 PM 50.0 °F 42.1 °F 74% 30.18 in 9.0 mi North 13.8 mph - 0.00 in Rain Light Rain
7:50 PM 50.0 °F 42.8 °F 76% 30.21 in 9.0 mi North 12.7 mph - 0.00 in   Overcast
7:53 PM 50.0 °F 42.1 °F 74% 30.18 in 8.0 mi North 13.8 mph - 0.00 in   Overcast
8:53 PM 48.9 °F 42.1 °F 77% 30.19 in 9.0 mi North 15.0 mph - 0.00 in Rain Light Rain
9:53 PM 48.0 °F 41.0 °F 77% 30.19 in 8.0 mi North 19.6 mph - 0.02 in Rain Light Rain
10:53 PM 46.9 °F 41.0 °F 80% 30.22 in 7.0 mi North 12.7 mph - 0.03 in Rain Light Rain
11:14 PM 48.2 °F 41.0 °F 76% 30.24 in 8.0 mi NNE 11.5 mph - 0.01 in Rain Light Rain
11:53 PM 46.9 °F 41.0 °F 80% 30.22 in 7.0 mi North 11.5 mph - 0.02 in Rain Light Rain